Temp
23 23 23 22 28 31 29 28 29 27 27 25 25 26 26 24 26 26 20 19 18 18 17 17 18 18 18 18 19 19 18 18 18 18 18 18 18 18 18 18 18 18 18 18 18 18 18 18 18
21 23 22 25 29 29 28 29 28 28 26 25 24 24 25 25 21 20 19 19 18 19 18 17 18 18 18 18 18 18 18 18 18 18 18 18 18 18 18 18 18 18 17 18 18 18 18 18 18
23 22 25 30 30 29 28 28 28 26 25 25 25 24 24 23 21 21 20 19 19 19 19 17 18 18 18 18 18 18 18 18 18 18 18 18 18 18 18 18 18 18 18 18 18 18 18 18 18
21 23 26 30 29 29 29 29 28 26 25 25 25 25 22 21 21 21 19 19 19 19 19 18 18 18 18 18 18 18 18 18 18 18 18 18 18 18 18 18 18 17 18 19 18 18 18 18 18
22 25 29 29 29 29 29 28 27 28 26 25 25 25 22 20 20 20 19 19 19 19 19 17 18 18 17 18 18 18 18 18 18 18 18 18 18 19 18 18 17 19 19 19 19 19 18 18 18
26 26 30 29 28 29 29 27 27 27 26 26 25 25 23 20 20 20 19 19 20 19 19 17 18 18 18 18 18 18 18 18 19 18 18 18 19 18 18 18 19 19 19 19 19 19 19 19 18
27 30 29 30 29 28 28 27 28 28 27 26 25 26 22 21 20 20 19 19 20 19 19 18 17 17 18 18 18 18 18 18 19 18 18 19 19 19 19 19 19 19 19 19 19 19 19 19 19
25 30 29 30 29 29 28 27 27 28 27 25 25 26 24 21 20 19 19 19 19 19 19 19 18 17 17 17 18 18 18 18 19 19 19 19 20 20 19 19 19 19 19 19 19 19 19 20 20
24 30 30 29 29 29 28 28 26 26 25 25 25 26 24 20 20 20 19 19 19 19 19 19 18 18 18 18 18 19 19 19 19 19 20 20 18 19 19 19 19 20 20 20 20 20 20 20 20
28 31 30 30 30 30 28 29 27 27 26 26 24 24 22 21 20 21 20 20 20 19 19 19 19 19 18 18 17 17 17 18 18 17 19 18 18 19 19 19 20 20 20 20 20 20 20 20 20
28 30 30 29 29 29 29 28 28 28 28 27 25 23 22 21 21 22 21 21 20 20 20 19 19 19 19 19 18 18 19 18 18 18 19 18 18 19 19 19 19 19 20 19 19 20 19 20 20
30 29 29 28 29 29 29 28 29 28 28 27 25 23 22 22 22 22 22 21 21 20 20 19 19 18 19 19 18 19 19 18 18 18 20 18 19 19 19 19 19 20 20 20 20 19 19 19 19
30 30 29 29 29 29 28 28 29 28 27 26 25 23 23 23 23 22 22 22 21 20 20 20 18 17 18 17 18 18 18 18 18 18 20 18 18 19 18 19 19 19 19 19 20 20 20 20 20
29 30 30 29 29 29 29 29 28 28 26 26 24 24 24 24 23 23 22 22 21 21 20 20 18 17 17 17 17 17 18 18 18 18 19 21 19 19 19 20 19 19 19 19 19 19 20 20 20
29 31 31 30 30 30 29 29 29 28 26 26 25 24 24 24 23 23 22 22 21 21 20 20 18 18 17 19 20 18 18 18 18 18 18 20 20 20 20 19 19 19 19 21 19 20 20 20 21
31 31 31 30 30 29 30 30 31 28 26 27 26 25 25 24 24 23 23 22 21 21 20 19 19 19 19 19 20 18 18 19 19 19 19 20 20 20 20 19 19 19 20 19 19 19 19 20 21
28 30 30 30 30 30 30 30 31 28 27 28 26 26 25 25 24 24 23 22 22 21 20 19 19 19 20 21 21 20 20 19 19 19 19 20 21 20 21 19 19 20 19 19 19 19 19 20 20
29 30 30 30 31 30 30 30 32 29 28 28 28 27 26 26 25 24 23 23 22 21 20 19 19 19 18 20 21 19 19 19 19 19 19 19 19 20 20 19 20 20 19 19 18 19 18 19 19
30 28 30 31 31 30 30 31 32 31 29 29 29 28 26 26 26 26 24 23 23 22 21 20 19 19 19 18 19 19 20 20 20 20 19 19 19 19 20 20 19 18 18 18 20 19 18 19 18
31 30 31 31 30 30 31 31 32 32 30 30 30 29 28 27 27 26 25 24 23 23 21 20 20 21 22 19 19 20 20 21 21 20 19 20 20 20 20 20 19 19 18 19 19 19 19 19 19
30 30 30 30 31 30 28 32 31 31 30 29 29 29 28 28 27 27 26 24 24 23 22 21 22 22 22 20 19 19 19 19 20 20 19 19 20 20 20 20 19 19 19 18 18 18 18 17 17
31 29 30 30 31 31 29 31 32 32 31 29 28 28 28 28 27 27 26 25 24 24 23 21 22 22 22 22 19 19 20 21 21 21 20 18 20 20 20 19 18 18 18 18 18 16 16 16 16
29 29 29 30 31 31 31 31 33 31 32 31 30 29 28 28 28 27 27 26 24 24 23 22 22 22 22 22 21 19 19 20 20 19 19 19 19 19 19 19 18 18 17 17 17 17 17 16 16
29 30 31 30 31 32 30 30 33 32 31 31 31 29 28 28 27 27 27 26 25 23 23 22 21 22 22 21 22 21 19 19 19 17 18 18 18 18 18 18 17 18 18 17 16 16 16 15 16
29 31 31 31 32 31 31 30 32 32 31 30 28 27 27 26 26 26 26 25 24 21 22 21 22 22 21 20 19 20 20 19 17 18 18 18 17 17 17 17 17 17 16 16 16 16 15 15 15
31 31 30 28 30 31 30 30 33 32 30 27 26 25 24 24 25 25 26 24 23 21 20 20 20 22 22 21 19 19 20 20 19 18 18 16 16 17 17 16 16 15 15 15 15 15 14 14 14
30 30 32 31 32 31 32 32 33 32 32 30 28 26 25 24 23 24 22 21 21 20 20 19 18 20 20 20 19 18 18 17 16 16 16 16 15 15 14 15 16 15 14 15 14 13 14 15 15
30 31 31 31 28 28 31 31 32 31 32 31 30 29 26 23 21 21 21 20 19 19 19 18 19 19 19 19 18 18 17 17 16 16 16 15 15 14 14 14 15 14 14 15 14 14 15 15 15
30 30 30 31 31 29 29 31 33 31 31 30 30 28 26 23 21 20 19 18 17 18 19 18 17 18 17 18 19 19 19 19 18 16 16 15 14 14 15 14 15 14 14 13 13 14 14 14 14
31 31 32 31 29 31 29 30 32 31 30 30 30 26 24 22 18 17 16 16 16 17 19 19 18 17 16 18 18 17 17 17 15 15 16 15 16 16 15 14 14 13 13 13 13 13 14 13 13
Height
1514 1514 1514 1515 1511 1496 1508 1518 1511 1519 1522 1526 1528 1529 1528 1532 1528 1534 1544 1548 1550 1555 1557 1556 1559 1559 1561 1562 1564 1565 1567 1569 1570 1571 1572 1573 1573 1574 1574 1575 1576 1577 1577 1578 1578 1579 1579 1580 1581
1515 1515 1515 1512 1505 1508 1517 1510 1516 1518 1524 1529 1532 1532 1532 1535 1539 1541 1545 1548 1552 1556 1558 1559 1559 1560 1562 1564 1565 1567 1569 1570 1571 1572 1574 1574 1575 1576 1576 1577 1578 1579 1580 1580 1580 1581 1581 1582 1582
1516 1515 1516 1503 1499 1509 1518 1515 1518 1523 1527 1529 1531 1534 1535 1538 1542 1544 1546 1549 1554 1557 1560 1559 1560 1562 1563 1565 1567 1569 1570 1571 1572 1574 1575 1575 1577 1578 1578 1579 1580 1581 1581 1582 1582 1583 1583 1584 1585
1517 1518 1514 1503 1512 1511 1512 1516 1520 1524 1528 1529 1530 1533 1539 1541 1544 1546 1547 1552 1555 1559 1561 1559 1561 1563 1565 1567 1569 1571 1572 1572 1573 1575 1576 1577 1578 1579 1580 1581 1582 1583 1583 1584 1585 1585 1585 1586 1586
1518 1516 1507 1509 1512 1511 1514 1519 1521 1521 1525 1529 1530 1534 1540 1544 1546 1548 1550 1554 1557 1560 1562 1560 1562 1564 1566 1568 1570 1572 1573 1574 1575 1576 1578 1579 1580 1581 1582 1583 1584 1584 1585 1586 1587 1587 1587 1587 1587
1517 1514 1508 1513 1517 1515 1517 1520 1521 1522 1526 1529 1532 1535 1541 1545 1547 1549 1552 1555 1559 1561 1564 1563 1563 1566 1568 1569 1571 1572 1574 1575 1576 1577 1579 1580 1581 1583 1584 1584 1585 1586 1587 1588 1589 1589 1589 1589 1588
1514 1504 1511 1508 1516 1517 1519 1522 1520 1522 1525 1528 1532 1533 1543 1546 1548 1550 1553 1557 1560 1562 1565 1566 1567 1567 1568 1570 1571 1573 1574 1576 1577 1578 1580 1581 1583 1584 1585 1586 1586 1587 1588 1589 1590 1590 1590 1590 1590
1517 1508 1511 1509 1514 1518 1520 1522 1525 1523 1526 1531 1532 1533 1540 1544 1548 1551 1554 1558 1560 1563 1565 1567 1567 1569 1571 1571 1572 1573 1575 1577 1578 1579 1581 1583 1585 1586 1587 1587 1588 1589 1590 1591 1591 1591 1590 1591 1591
1516 1506 1512 1514 1511 1515 1521 1522 1526 1527 1530 1532 1533 1533 1537 1542 1547 1551 1554 1557 1560 1562 1565 1567 1568 1570 1572 1574 1573 1574 1576 1577 1579 1580 1582 1584 1588 1588 1588 1589 1590 1591 1591 1592 1592 1592 1592 1591 1591
1513 1504 1511 1512 1513 1513 1519 1519 1524 1527 1529 1532 1534 1536 1540 1543 1545 1549 1552 1555 1558 1561 1564 1566 1569 1570 1572 1575 1574 1577 1578 1580 1581 1582 1583 1586 1589 1591 1592 1591 1591 1592 1593 1594 1594 1593 1593 1592 1595
1514 1510 1513 1514 1514 1516 1519 1521 1523 1524 1525 1527 1533 1537 1542 1544 1547 1548 1552 1554 1557 1560 1563 1566 1568 1571 1573 1575 1576 1578 1581 1582 1582 1582 1583 1587 1588 1589 1591 1593 1593 1594 1594 1595 1595 1594 1594 1594 1594
1511 1515 1514 1517 1517 1518 1519 1521 1522 1523 1525 1527 1532 1538 1541 1545 1547 1548 1550 1553 1556 1558 1561 1564 1567 1569 1572 1575 1576 1577 1580 1580 1582 1583 1583 1586 1587 1589 1591 1593 1593 1593 1594 1595 1594 1595 1594 1595 1594
1512 1513 1515 1517 1518 1518 1521 1522 1522 1525 1527 1529 1533 1538 1542 1544 1546 1548 1550 1552 1555 1558 1560 1563 1563 1565 1570 1572 1575 1577 1579 1580 1583 1583 1584 1586 1589 1590 1592 1594 1595 1595 1596 1595 1594 1594 1595 1594 1595
1515 1513 1514 1517 1518 1519 1520 1522 1523 1525 1528 1530 1534 1536 1540 1543 1545 1547 1549 1552 1554 1556 1558 1561 1563 1564 1567 1570 1573 1576 1579 1581 1582 1584 1585 1586 1588 1589 1591 1592 1593 1594 1594 1594 1594 1594 1594 1595 1595
1516 1511 1512 1515 1517 1517 1519 1520 1519 1522 1526 1530 1533 1536 1538 1541 1544 1546 1548 1549 1552 1555 1557 1559 1561 1563 1565 1567 1570 1573 1577 1580 1582 1584 1584 1585 1587 1589 1590 1592 1592 1593 1593 1592 1592 1593 1594 1594 1595
1512 1511 1514 1515 1515 1518 1518 1516 1512 1520 1525 1526 1530 1534 1536 1539 1542 1544 1547 1549 1551 1553 1555 1558 1559 1562 1564 1567 1570 1573 1576 1579 1581 1584 1585 1585 1587 1588 1589 1591 1592 1592 1591 1592 1592 1593 1593 1594 1593
1517 1518 1518 1517 1515 1514 1515 1513 1510 1517 1521 1523 1526 1529 1533 1536 1539 1542 1545 1547 1549 1551 1553 1555 1558 1561 1562 1565 1569 1572 1575 1577 1580 1582 1584 1584 1585 1586 1588 1590 1592 1590 1590 1592 1592 1593 1592 1593 1593
1519 1517 1514 1514 1511 1512 1510 1510 1505 1513 1516 1518 1521 1526 1529 1531 1534 1538 1542 1545 1548 1550 1551 1553 1556 1559 1562 1564 1567 1571 1575 1577 1579 1581 1582 1583 1584 1585 1586 1588 1588 1588 1590 1591 1591 1590 1590 1592 1592
1515 1521 1517 1507 1508 1513 1508 1504 1501 1504 1512 1512 1516 1520 1525 1527 1531 1534 1538 1542 1545 1548 1550 1552 1553 1556 1558 1562 1565 1569 1572 1575 1577 1578 1580 1581 1583 1584 1585 1585 1587 1586 1586 1585 1585 1586 1586 1587 1589
1513 1514 1508 1505 1509 1512 1504 1502 1498 1499 1504 1507 1510 1514 1518 1523 1526 1529 1534 1537 1541 1544 1547 1549 1551 1553 1556 1560 1563 1567 1570 1573 1575 1577 1578 1578 1580 1582 1583 1583 1585 1583 1583 1582 1583 1583 1582 1583 1585
1514 1518 1515 1515 1507 1505 1510 1495 1495 1496 1499 1504 1506 1509 1512 1515 1520 1524 1528 1531 1536 1539 1542 1544 1547 1551 1554 1557 1560 1564 1567 1569 1572 1574 1576 1576 1577 1578 1579 1579 1579 1578 1579 1579 1579 1580 1577 1579 1581
1513 1517 1514 1510 1509 1511 1509 1513 1492 1493 1496 1501 1503 1504 1506 1510 1514 1518 1522 1527 1530 1533 1537 1540 1543 1546 1550 1554 1558 1559 1564 1567 1569 1572 1571 1572 1572 1573 1574 1574 1575 1574 1576 1575 1575 1577 1578 1576 1578
1519 1516 1515 1512 1507 1505 1503 1506 1488 1491 1490 1493 1497 1500 1501 1503 1507 1511 1516 1521 1525 1530 1533 1536 1537 1541 1544 1548 1552 1556 1559 1564 1567 1566 1566 1568 1569 1569 1570 1570 1570 1570 1573 1571 1572 1574 1570 1572 1577
1517 1514 1507 1508 1504 1508 1511 1514 1492 1492 1497 1493 1494 1497 1498 1500 1504 1508 1512 1517 1521 1524 1527 1529 1531 1533 1538 1543 1545 1550 1555 1558 1560 1563 1563 1565 1565 1565 1565 1566 1567 1566 1565 1569 1567 1568 1571 1572 1573
1516 1511 1514 1522 1512 1514 1505 1511 1495 1490 1492 1497 1498 1498 1498 1499 1502 1505 1509 1512 1516 1518 1518 1520 1525 1526 1534 1538 1541 1544 1549 1553 1555 1557 1559 1561 1560 1560 1560 1561 1561 1561 1563 1564 1564 1565 1566 1567 1568
1511 1511 1521 1542 1524 1516 1504 1513 1493 1490 1495 1499 1500 1499 1499 1499 1500 1502 1504 1509 1512 1514 1515 1517 1521 1523 1525 1532 1538 1541 1541 1545 1550 1554 1556 1557 1556 1555 1555 1554 1554 1556 1559 1560 1562 1564 1564 1564 1564
1513 1517 1502 1513 1499 1514 1496 1492 1484 1487 1487 1494 1497 1498 1498 1499 1499 1501 1505 1508 1508 1507 1510 1514 1518 1519 1523 1524 1525 1535 1537 1543 1548 1552 1555 1550 1547 1547 1549 1551 1549 1553 1555 1556 1561 1562 1561 1562 1563
1509 1507 1513 1505 1535 1533 1505 1504 1495 1489 1488 1491 1492 1493 1495 1498 1499 1501 1503 1506 1507 1507 1508 1509 1510 1514 1520 1520 1524 1530 1536 1540 1543 1542 1545 1543 1542 1544 1547 1546 1546 1551 1553 1555 1557 1559 1560 1559 1562
1507 1509 1508 1506 1509 1523 1522 1503 1481 1487 1490 1490 1490 1492 1492 1495 1498 1500 1501 1502 1502 1501 1502 1505 1506 1509 1513 1514 1521 1525 1522 1526 1531 1538 1539 1540 1541 1542 1543 1546 1546 1548 1551 1553 1556 1557 1557 1558 1559
1500 1499 1498 1507 1515 1499 1508 1504 1483 1489 1490 1489 1486 1491 1493 1495 1497 1497 1498 1499 1498 1497 1497 1498 1501 1504 1507 1512 1516 1520 1526 1527 1527 1534 1536 1538 1540 1540 1540 1542 1544 1547 1549 1551 1553 1554 1555 1556 1557
Wind_Speed
2 5 2 2 4 2 9 7 7 11 10 3 11 1 4 6 6 5 17 13 18 16 13 14 11 10 12 12 12 12 13 13 12 9 9 11 12 12 12 11 9 9 10 12 12 11 11 10 11
3 2 2 4 3 7 8 6 9 6 9 13 8 6 4 6 6 15 18 16 17 15 13 12 12 9 11 11 12 12 12 13 11 11 11 12 12 11 11 10 11 10 12 13 13 14 15 15 14
3 1 3 3 2 9 11 7 8 8 12 11 4 2 3 4 11 18 13 20 16 14 12 13 12 10 12 11 11 11 12 12 11 12 12 12 11 11 9 10 10 11 12 13 13 13 13 12 12
2 2 4 2 11 10 12 10 9 12 8 6 5 7 7 9 15 10 20 18 16 14 13 12 12 12 13 11 11 11 11 12 12 11 12 11 10 11 11 10 10 10 11 12 11 11 11 11 10
2 3 3 7 12 10 11 10 5 4 8 8 6 7 14 9 9 18 19 17 16 15 13 13 13 12 12 11 11 11 11 11 11 11 12 11 10 12 10 10 9 10 10 9 8 7 8 8 8
3 4 5 8 13 10 8 6 4 4 8 9 7 15 10 10 16 18 17 16 15 14 13 12 13 11 12 12 12 13 12 11 12 12 10 11 13 12 10 9 9 10 10 9 7 6 6 6 5
3 2 8 8 12 7 8 4 5 8 9 9 16 10 11 14 18 18 16 16 15 14 13 11 11 13 13 13 12 12 11 11 11 11 11 12 12 11 10 10 10 11 10 9 7 6 4 4 3
1 2 6 6 5 11 8 6 7 6 8 13 13 7 16 18 19 18 16 15 14 13 13 13 13 11 11 10 14 13 12 10 10 12 13 13 11 11 11 10 8 9 8 7 6 3 3 3 3
1 3 7 6 2 8 11 8 5 4 14 7 3 7 19 22 20 18 17 16 15 14 14 14 13 13 13 12 13 13 13 12 12 12 14 14 8 9 9 7 8 7 6 5 4 2 1 0 4
4 2 5 4 2 6 11 7 9 9 10 5 5 12 22 21 21 20 19 18 17 16 15 14 13 13 13 12 13 11 10 9 10 11 13 10 10 9 9 7 7 6 4 2 2 1 0 1 2
2 7 3 5 5 7 9 6 5 9 6 5 13 21 21 19 18 18 16 16 17 16 15 15 15 14 13 13 12 11 10 10 10 14 14 11 10 9 7 6 4 3 2 2 4 3 3 4 2
3 4 3 4 7 8 8 9 7 5 7 6 15 20 21 19 17 15 15 15 16 17 17 15 15 14 15 13 13 13 13 12 11 13 17 13 12 11 9 6 6 5 3 3 4 4 3 1 2
4 3 3 5 5 7 8 7 3 7 3 11 19 21 19 18 16 13 12 13 15 15 16 16 17 17 16 15 12 13 12 11 11 12 16 13 9 9 6 5 5 5 6 6 7 4 2 2 2
4 3 5 5 5 5 5 4 4 6 7 15 19 21 20 18 16 15 14 13 14 15 16 16 16 16 16 15 14 12 10 10 11 11 12 16 13 11 9 8 6 6 7 8 7 7 5 4 4
1 8 8 5 3 3 5 7 7 7 13 16 18 19 20 19 17 16 15 16 14 13 15 17 17 16 17 17 16 14 12 11 11 11 13 15 13 11 10 8 9 9 10 9 6 6 7 6 7
4 4 6 6 3 3 9 0 7 10 16 17 18 19 20 20 19 17 15 14 14 13 15 16 17 18 17 17 18 15 14 14 12 11 10 12 13 13 10 7 7 7 7 5 5 6 6 5 6
4 2 4 5 4 3 9 6 4 12 17 17 20 20 21 21 21 19 18 17 16 15 15 17 17 18 19 19 20 18 15 14 13 13 12 13 12 12 12 6 5 7 5 4 5 6 5 6 6
1 5 3 7 6 9 10 13 12 12 17 18 20 20 21 22 25 23 21 19 17 17 16 17 18 18 19 21 24 17 14 13 13 14 12 11 10 11 11 8 8 8 5 5 6 7 6 6 9
3 2 6 4 2 8 14 13 12 12 17 18 20 22 22 23 22 23 23 22 20 19 19 18 20 21 22 22 22 18 17 15 14 14 14 12 10 10 11 9 8 9 7 10 14 11 11 12 10
5 6 6 1 2 7 11 15 12 10 16 19 20 22 23 22 22 24 24 23 24 23 22 21 21 23 25 23 22 20 18 16 15 14 14 17 15 14 13 13 11 14 12 17 17 17 20 21 19
4 8 8 10 8 7 10 6 3 6 13 16 19 20 23 24 24 25 26 26 25 25 26 26 27 25 26 25 22 18 16 15 14 14 13 14 18 18 18 18 18 18 16 16 18 20 27 29 18
3 5 9 11 10 8 4 4 2 2 2 10 17 22 25 25 25 24 26 26 27 28 26 26 30 30 29 30 23 24 18 17 16 15 16 15 17 17 21 15 12 9 13 17 25 16 25 28 25
5 4 7 10 10 7 6 6 8 4 5 1 9 17 23 26 27 28 26 25 26 23 25 25 32 33 34 32 32 25 24 17 14 15 18 16 16 16 15 14 16 16 21 25 16 19 16 16 18
2 8 9 6 5 3 7 6 2 11 10 6 8 7 12 21 24 24 25 24 23 22 22 23 27 32 37 39 35 36 24 19 19 12 18 18 17 19 20 16 15 14 21 23 23 23 16 16 17
6 10 4 3 2 5 5 8 6 12 9 9 11 11 8 11 17 18 20 22 21 21 24 26 24 29 30 38 32 32 31 23 18 21 19 18 17 18 20 20 19 24 20 14 16 16 16 13 14
4 9 7 7 8 10 2 4 6 8 8 9 10 10 6 5 10 13 14 13 16 17 17 19 21 22 30 31 28 29 31 29 25 22 20 15 16 15 5 4 8 6 11 13 12 13 11 12 10
6 7 8 11 13 8 4 5 10 6 7 12 12 8 5 3 4 7 9 8 8 13 17 20 18 23 22 28 34 33 22 16 10 6 10 25 31 27 26 9 10 11 18 14 12 12 11 8 7
10 6 7 6 7 11 12 13 8 11 17 15 15 13 6 5 6 6 7 7 7 8 11 17 21 25 31 32 26 20 19 20 16 14 25 22 17 19 15 11 13 16 12 13 12 11 10 9 7
6 10 7 8 7 11 13 9 15 12 12 17 17 16 8 8 6 5 4 4 5 11 12 13 21 25 28 34 32 25 24 28 32 32 25 20 18 16 11 13 15 14 13 13 13 11 9 8 8
9 11 9 9 11 10 9 14 7 6 15 21 22 13 6 5 7 4 2 2 2 5 11 17 21 24 26 27 28 33 33 32 29 28 23 23 20 17 16 15 15 13 13 14 13 11 11 10 9
Wind_Direction
347 310 292 289 217 163 87 90 107 117 137 97 131 189 63 17 347 45 141 148 156 150 159 153 151 151 149 143 144 149 155 157 163 164 153 143 136 133 129 127 129 126 124 119 117 114 117 126 125
232 169 324 270 225 103 78 83 102 109 116 131 120 125 122 80 73 126 141 146 148 150 156 152 151 148 143 147 147 150 151 152 153 152 146 137 131 128 126 123 126 129 125 124 110 103 99 104 110
113 6 274 273 3 64 94 92 90 120 140 156 121 52 75 77 124 133 151 148 147 147 150 164 151 144 144 147 149 149 147 148 147 140 141 133 135 129 126 126 128 130 130 129 116 110 109 105 100
314 285 248 68 87 65 96 111 116 127 157 163 113 102 91 114 132 146 145 147 146 146 150 160 147 150 148 152 149 147 149 147 143 144 141 140 135 143 142 127 129 142 135 134 128 122 113 109 105
313 265 150 95 91 96 105 113 137 140 154 165 169 122 119 137 138 145 147 148 150 150 157 156 153 153 150 154 156 150 149 147 147 152 144 146 142 138 138 141 144 135 133 134 128 110 100 94 87
232 254 132 112 102 107 117 120 127 138 139 144 145 130 120 141 146 151 153 150 153 152 152 161 155 158 162 157 163 157 154 146 152 149 161 156 147 143 149 145 137 130 129 130 129 119 104 92 88
268 194 97 119 115 135 130 139 122 137 145 150 146 135 133 146 154 155 154 153 158 157 156 158 163 167 164 162 167 158 157 157 161 166 162 153 153 149 142 134 126 122 121 123 122 115 95 72 59
226 223 143 110 138 111 136 135 118 130 99 135 146 151 161 160 157 157 156 158 158 162 162 164 176 160 159 163 165 164 161 160 160 165 159 151 153 147 141 129 123 124 125 131 133 132 115 89 52
253 208 104 107 204 123 153 140 131 123 139 156 174 160 152 156 158 160 161 165 168 168 174 172 173 171 171 173 172 171 171 169 167 166 162 154 154 156 157 159 150 140 149 154 145 155 175 217 6
263 82 81 75 89 130 162 142 137 145 153 153 140 137 151 155 160 168 172 175 176 177 180 178 179 179 175 173 190 174 180 176 175 177 177 164 177 178 163 182 166 163 158 158 151 141 154 9 331
39 70 66 73 70 128 142 133 135 145 186 157 161 155 159 160 166 168 176 183 183 182 184 183 183 184 180 179 180 182 183 193 192 186 177 183 189 188 177 193 190 207 254 309 306 330 318 291 266
151 72 62 91 109 134 147 142 156 144 44 143 160 166 165 169 174 178 180 185 186 186 185 188 187 191 184 190 182 187 188 193 188 192 187 186 181 192 189 206 214 210 234 302 295 316 286 296 295
11 60 132 119 116 115 141 168 104 192 75 146 155 167 175 177 178 181 182 184 182 190 193 191 190 185 188 193 196 192 196 194 190 194 191 186 192 208 215 234 230 242 260 294 311 303 302 286 328
23 149 119 147 163 141 175 165 204 149 160 155 165 173 181 184 185 180 181 181 185 188 193 195 196 196 190 191 191 198 198 201 189 191 195 195 195 208 214 232 248 254 263 292 288 275 275 282 289
323 144 129 87 159 166 215 210 233 166 172 172 177 182 183 188 189 192 187 185 186 194 192 193 194 199 200 195 197 194 194 188 196 197 204 201 207 222 218 236 253 260 265 276 293 280 298 302 303
233 224 198 103 211 160 223 222 171 176 186 187 187 190 192 192 194 192 193 194 194 189 194 193 191 196 199 201 198 189 190 191 199 203 206 213 219 227 232 244 259 258 243 255 296 300 298 295 295
240 236 207 179 226 208 230 272 151 183 195 199 194 194 198 195 196 200 200 198 199 195 196 194 195 195 195 195 190 190 199 201 204 202 210 227 225 228 229 247 257 261 256 263 302 307 301 298 297
310 197 223 264 192 234 246 261 276 192 206 208 200 199 201 202 200 200 201 203 203 206 201 199 199 196 197 194 189 196 206 211 214 218 220 224 225 227 228 244 256 270 269 280 286 292 285 301 300
302 313 284 287 262 282 270 281 287 193 222 214 208 202 207 210 206 202 203 205 206 209 208 206 204 203 197 195 197 203 209 212 221 222 225 229 233 238 242 246 263 276 277 260 282 280 272 272 304
274 247 339 12 322 285 301 295 284 246 219 227 218 215 212 211 206 204 205 208 211 212 212 211 209 211 207 203 203 208 214 223 229 229 233 237 243 245 248 256 259 256 259 279 283 283 276 277 274
82 335 351 329 307 233 302 241 106 217 236 229 234 229 221 217 212 208 208 210 212 213 215 215 220 219 219 209 211 215 216 219 229 231 242 248 246 252 251 259 261 269 276 277 270 279 275 268 263
69 353 318 319 313 350 7 309 162 71 241 228 233 229 228 224 222 218 215 215 215 218 217 217 227 227 225 224 214 216 221 233 238 241 236 235 253 251 252 266 274 283 265 276 291 277 292 252 261
27 298 321 311 296 289 104 262 80 152 35 233 226 239 237 231 226 222 222 221 222 223 223 226 232 228 227 229 222 224 228 233 241 231 239 254 260 257 260 263 272 284 284 280 265 276 298 248 252
326 278 255 268 281 211 44 332 276 28 356 353 318 306 260 236 234 233 229 227 226 219 217 219 227 231 228 230 232 228 222 223 229 232 250 258 258 259 258 251 254 277 290 286 275 273 259 254 261
250 262 294 301 232 27 62 298 323 20 10 346 324 315 294 247 235 235 234 232 225 223 227 233 238 238 217 236 232 231 232 233 224 237 247 251 252 252 256 258 273 275 285 283 282 260 258 255 252
292 312 304 308 325 332 132 279 8 34 30 5 339 328 311 275 238 233 226 227 230 228 225 222 229 236 224 229 239 238 231 238 237 247 254 250 259 251 229 291 242 219 262 292 258 254 249 248 239
115 248 4 291 276 265 317 332 297 152 72 24 350 331 306 275 217 201 213 213 199 218 216 215 229 225 215 224 218 223 220 224 224 163 322 295 290 255 263 207 191 258 283 266 239 225 214 201 209
260 354 254 216 285 296 307 306 296 347 332 346 343 335 288 238 225 208 207 215 208 206 218 222 222 230 221 223 221 218 229 240 242 274 267 272 253 233 231 233 209 263 237 223 210 204 206 198 201
181 234 226 300 280 302 299 308 343 331 332 331 327 332 294 236 229 220 220 226 231 231 219 208 217 210 213 224 225 229 241 235 246 246 263 229 211 201 223 252 246 219 211 200 203 211 217 218 220
277 286 276 284 292 287 294 285 65 315 322 311 314 335 295 241 202 208 253 310 305 257 236 228 213 210 217 220 223 230 236 233 222 234 245 215 207 218 243 238 213 204 211 216 221 223 232 229 225